Station Historical Data
Daily Summary for May 5, 2017 Units:  English    Metric   Both
Next Day »
Daily Weekly Monthly Yearly Custom
  High: Low: Average:
Temperature: 72.4 °F 53.1 °F 63.9 °F
Dew Point: 53.9 °F 40.7 °F 49.3 °F
Humidity: 77% 34% 61%
Wind Speed: 15.0mph 0.0mph 3.3mph
Wind Gust: 19.0mph - -
Wind- - South
Pressure: 29.85 in 29.76 in -
Precipitation: 0.00 in    
Historical Graphs
 
 
Tabular Data for May 5, 2017
Time Temperature Dew Point Pressure Wind Wind Speed Wind Gust Humidity Rainfall Rate (Hourly) solar Conditions
00:01 65.1 °F 51.3 °F 29.85 in SSE 11.0 mph 11.0 mph 61% 0.00 in 0.00 W/m2
00:02 65.1 °F 51.3 °F 29.85 in SSE 7.0 mph 11.0 mph 61% 0.00 in 0.00 W/m2
00:07 65.0 °F 51.2 °F 29.85 in SSE 5.0 mph 10.0 mph 61% 0.00 in 0.00 W/m2
00:12 64.7 °F 51.0 °F 29.85 in SSE 9.0 mph 13.0 mph 61% 0.00 in 0.00 W/m2
00:17 64.6 °F 50.9 °F 29.85 in SSE 9.0 mph 11.0 mph 61% 0.00 in 0.00 W/m2
00:22 64.3 °F 51.0 °F 29.85 in SSE 5.0 mph 10.0 mph 62% 0.00 in 0.00 W/m2
00:27 64.1 °F 50.8 °F 29.85 in South 10.0 mph 12.0 mph 62% 0.00 in 0.00 W/m2
00:32 63.9 °F 50.6 °F 29.85 in SSE 5.0 mph 12.0 mph 62% 0.00 in 0.00 W/m2
00:37 63.8 °F 50.5 °F 29.85 in SSE 5.0 mph 9.0 mph 62% 0.00 in 0.00 W/m2
00:42 63.6 °F 50.4 °F 29.85 in SSE 9.0 mph 9.0 mph 62% 0.00 in 0.00 W/m2
00:47 63.5 °F 50.7 °F 29.85 in SSE 11.0 mph 11.0 mph 63% 0.00 in 0.00 W/m2
00:52 63.4 °F 50.6 °F 29.85 in SE 8.0 mph 11.0 mph 63% 0.00 in 0.00 W/m2
00:57 63.3 °F 50.5 °F 29.85 in SE 7.0 mph 10.0 mph 63% 0.00 in 0.00 W/m2
01:02 63.2 °F 50.4 °F 29.85 in SE 8.0 mph 11.0 mph 63% 0.00 in 0.00 W/m2
01:07 63.1 °F 50.3 °F 29.85 in SE 10.0 mph 10.0 mph 63% 0.00 in 0.00 W/m2
01:12 63.1 °F 50.3 °F 29.85 in SE 4.0 mph 10.0 mph 63% 0.00 in 0.00 W/m2
01:17 63.0 °F 50.2 °F 29.85 in SE 8.0 mph 11.0 mph 63% 0.00 in 0.00 W/m2
01:22 62.9 °F 50.1 °F 29.84 in SE 11.0 mph 12.0 mph 63% 0.00 in 0.00 W/m2
01:27 62.9 °F 50.1 °F 29.85 in SE 5.0 mph 12.0 mph 63% 0.00 in 0.00 W/m2
01:32 62.8 °F 49.6 °F 29.84 in SE 11.0 mph 13.0 mph 62% 0.00 in 0.00 W/m2
01:37 62.7 °F 49.5 °F 29.84 in SE 9.0 mph 13.0 mph 62% 0.00 in 0.00 W/m2
01:43 62.7 °F 49.5 °F 29.84 in SE 7.0 mph 11.0 mph 62% 0.00 in 0.00 W/m2
01:48 62.6 °F 49.0 °F 29.84 in SE 7.0 mph 9.0 mph 61% 0.00 in 0.00 W/m2
01:53 62.5 °F 49.3 °F 29.84 in SE 6.0 mph 9.0 mph 62% 0.00 in 0.00 W/m2
01:58 62.4 °F 49.2 °F 29.84 in SE 6.0 mph 11.0 mph 62% 0.00 in 0.00 W/m2
02:03 62.3 °F 49.1 °F 29.84 in SE 7.0 mph 8.0 mph 62% 0.00 in 0.00 W/m2
02:08 62.2 °F 49.0 °F 29.84 in SE 5.0 mph 8.0 mph 62% 0.00 in 0.00 W/m2
02:13 62.2 °F 48.6 °F 29.84 in SE 2.0 mph 11.0 mph 61% 0.00 in 0.00 W/m2
02:18 62.1 °F 48.9 °F 29.84 in SE 9.0 mph 11.0 mph 62% 0.00 in 0.00 W/m2
02:23 62.0 °F 48.4 °F 29.84 in SE 5.0 mph 8.0 mph 61% 0.00 in 0.00 W/m2
02:28 62.0 °F 48.4 °F 29.83 in SE 7.0 mph 9.0 mph 61% 0.00 in 0.00 W/m2
02:33 61.9 °F 48.8 °F 29.83 in SE 4.0 mph 11.0 mph 62% 0.00 in 0.00 W/m2
02:38 61.9 °F 49.2 °F 29.83 in SE 1.0 mph 5.0 mph 63% 0.00 in 0.00 W/m2
02:43 61.8 °F 48.7 °F 29.83 in SE 7.0 mph 8.0 mph 62% 0.00 in 0.00 W/m2
02:48 61.7 °F 48.6 °F 29.83 in SE 5.0 mph 9.0 mph 62% 0.00 in 0.00 W/m2
02:53 61.7 °F 48.6 °F 29.83 in SE 6.0 mph 8.0 mph 62% 0.00 in 0.00 W/m2
02:58 61.7 °F 48.6 °F 29.83 in SE 1.0 mph 11.0 mph 62% 0.00 in 0.00 W/m2
03:03 61.6 °F 48.9 °F 29.83 in SE 8.0 mph 9.0 mph 63% 0.00 in 0.00 W/m2
03:08 61.6 °F 48.9 °F 29.83 in SE 1.0 mph 2.0 mph 63% 0.00 in 0.00 W/m2
03:13 61.6 °F 49.7 °F 29.82 in SE 4.0 mph 8.0 mph 65% 0.00 in 0.00 W/m2
03:18 61.5 °F 49.6 °F 29.82 in Calm   7.0 mph 65% 0.00 in 0.00 W/m2
03:23 61.5 °F 49.6 °F 29.82 in SE 7.0 mph 9.0 mph 65% 0.00 in 0.00 W/m2
03:28 61.5 °F 50.0 °F 29.82 in SE 2.0 mph 9.0 mph 66% 0.00 in 0.00 W/m2
03:33 61.4 °F 50.0 °F 29.83 in SE 5.0 mph 8.0 mph 66% 0.00 in 0.00 W/m2
03:38 61.4 °F 50.0 °F 29.82 in SE 6.0 mph 8.0 mph 66% 0.00 in 0.00 W/m2
03:43 61.4 °F 50.4 °F 29.82 in SE 7.0 mph 7.0 mph 67% 0.00 in 0.00 W/m2
03:48 61.4 °F 50.4 °F 29.82 in SE 6.0 mph 11.0 mph 67% 0.00 in 0.00 W/m2
03:53 61.3 °F 50.7 °F 29.82 in Calm   11.0 mph 68% 0.00 in 0.00 W/m2
03:58 61.3 °F 51.1 °F 29.82 in Calm   4.0 mph 69% 0.00 in 0.00 W/m2
04:03 61.3 °F 51.1 °F 29.83 in Calm   2.0 mph 69% 0.00 in 0.00 W/m2
04:08 61.3 °F 51.1 °F 29.83 in Calm   4.0 mph 69% 0.00 in 0.00 W/m2
04:13 61.2 °F 51.0 °F 29.83 in Calm   2.0 mph 69% 0.00 in 0.00 W/m2
04:18 61.2 °F 51.0 °F 29.83 in Calm   4.0 mph 69% 0.00 in 0.00 W/m2
04:23 61.2 °F 51.3 °F 29.83 in SE 2.0 mph 5.0 mph 70% 0.00 in 0.00 W/m2
04:28 61.1 °F 50.9 °F 29.82 in Calm   2.0 mph 69% 0.00 in 0.00 W/m2
04:33 61.1 °F 50.9 °F 29.82 in Calm   6.0 mph 69% 0.00 in 0.00 W/m2
04:38 61.0 °F 51.2 °F 29.82 in SE 1.0 mph 4.0 mph 70% 0.00 in 0.00 W/m2
04:43 61.0 °F 51.2 °F 29.82 in ESE 5.0 mph 5.0 mph 70% 0.00 in 0.00 W/m2
04:48 60.9 °F 51.5 °F 29.82 in ESE 1.0 mph 5.0 mph 71% 0.00 in 0.00 W/m2
04:53 60.9 °F 51.8 °F 29.82 in ESE 2.0 mph 7.0 mph 72% 0.00 in 0.00 W/m2
04:58 60.8 °F 51.7 °F 29.82 in ESE 2.0 mph 8.0 mph 72% 0.00 in 0.00 W/m2
05:04 60.7 °F 51.6 °F 29.82 in Calm   6.0 mph 72% 0.00 in 0.00 W/m2
05:08 60.7 °F 51.6 °F 29.82 in Calm   5.0 mph 72% 0.00 in 0.00 W/m2
05:13 60.6 °F 51.9 °F 29.82 in ESE 2.0 mph 5.0 mph 73% 0.00 in 0.00 W/m2
05:18 60.5 °F 51.8 °F 29.82 in ESE 4.0 mph 4.0 mph 73% 0.00 in 0.00 W/m2
05:24 60.5 °F 52.2 °F 29.82 in Calm   11.0 mph 74% 0.00 in 0.00 W/m2
05:29 60.4 °F 52.1 °F 29.82 in ESE 2.0 mph 5.0 mph 74% 0.00 in 0.00 W/m2
05:34 60.4 °F 52.1 °F 29.82 in ESE 1.0 mph 5.0 mph 74% 0.00 in 0.00 W/m2
05:39 60.3 °F 52.0 °F 29.82 in ESE 4.0 mph 5.0 mph 74% 0.00 in 0.00 W/m2
05:44 60.2 °F 51.9 °F 29.82 in Calm   6.0 mph 74% 0.00 in 0.00 W/m2
05:49 60.2 °F 52.3 °F 29.82 in SE 1.0 mph 5.0 mph 75% 0.00 in 0.00 W/m2
05:54 60.1 °F 52.2 °F 29.82 in Calm   4.0 mph 75% 0.00 in 0.00 W/m2
05:59 60.1 °F 52.2 °F 29.82 in Calm   4.0 mph 75% 0.00 in 0.00 W/m2
06:04 60.0 °F 52.1 °F 29.82 in Calm   2.0 mph 75% 0.00 in 0.00 W/m2
06:09 60.0 °F 52.1 °F 29.82 in SE 5.0 mph 5.0 mph 75% 0.00 in 7.00 W/m2
06:14 59.9 °F 52.0 °F 29.82 in Calm   6.0 mph 75% 0.00 in 11.00 W/m2
06:19 59.8 °F 51.9 °F 29.82 in SE 2.0 mph 5.0 mph 75% 0.00 in 14.00 W/m2
06:21 59.8 °F 51.9 °F 29.82 in SE 1.0 mph 5.0 mph 75% 0.00 in 16.00 W/m2
06:26 59.7 °F 51.8 °F 29.82 in Calm   5.0 mph 75% 0.00 in 21.00 W/m2
06:31 59.7 °F 51.8 °F 29.82 in Calm   5.0 mph 75% 0.00 in 28.00 W/m2
06:36 59.6 °F 51.7 °F 29.82 in SE 4.0 mph 7.0 mph 75% 0.00 in 39.00 W/m2
06:41 59.6 °F 52.0 °F 29.82 in SE 1.0 mph 5.0 mph 76% 0.00 in 46.00 W/m2
06:46 59.5 °F 51.6 °F 29.82 in Calm   5.0 mph 75% 0.00 in 54.00 W/m2
06:51 59.5 °F 51.6 °F 29.82 in SE 2.0 mph 6.0 mph 75% 0.00 in 65.00 W/m2
06:56 59.5 °F 51.6 °F 29.83 in Calm   5.0 mph 75% 0.00 in 74.00 W/m2
07:01 59.5 °F 51.6 °F 29.83 in Calm   8.0 mph 75% 0.00 in 86.00 W/m2
07:06 59.5 °F 51.6 °F 29.83 in ESE 2.0 mph 6.0 mph 75% 0.00 in 102.00 W/m2
07:11 59.6 °F 52.0 °F 29.83 in ESE 4.0 mph 5.0 mph 76% 0.00 in 113.00 W/m2
07:16 59.6 °F 52.0 °F 29.83 in Calm   5.0 mph 76% 0.00 in 116.00 W/m2
07:21 59.7 °F 52.1 °F 29.83 in ESE 5.0 mph 5.0 mph 76% 0.00 in 155.00 W/m2
07:26 59.8 °F 52.2 °F 29.83 in ESE 2.0 mph 7.0 mph 76% 0.00 in 171.00 W/m2
07:31 59.9 °F 52.3 °F 29.83 in Calm   8.0 mph 76% 0.00 in 262.00 W/m2
07:36 60.0 °F 52.4 °F 29.83 in Calm   11.0 mph 76% 0.00 in 380.00 W/m2
07:41 60.2 °F 53.0 °F 29.82 in ESE 4.0 mph 11.0 mph 77% 0.00 in 413.00 W/m2
07:46 60.3 °F 53.1 °F 29.83 in ESE 5.0 mph 8.0 mph 77% 0.00 in 396.00 W/m2
07:51 60.5 °F 52.9 °F 29.83 in Calm   11.0 mph 76% 0.00 in 392.00 W/m2
07:56 60.7 °F 52.7 °F 29.83 in Calm   8.0 mph 75% 0.00 in 381.00 W/m2
08:01 60.9 °F 53.3 °F 29.83 in Calm   5.0 mph 76% 0.00 in 345.00 W/m2
08:06 61.2 °F 53.2 °F 29.83 in Calm   8.0 mph 75% 0.00 in 338.00 W/m2
08:11 61.4 °F 53.0 °F 29.83 in ESE 1.0 mph 7.0 mph 74% 0.00 in 265.00 W/m2
08:16 61.6 °F 52.9 °F 29.83 in Calm   7.0 mph 73% 0.00 in 248.00 W/m2
08:21 61.8 °F 53.1 °F 29.83 in Calm   5.0 mph 73% 0.00 in 272.00 W/m2
08:26 62.0 °F 52.9 °F 29.83 in ESE 1.0 mph 5.0 mph 72% 0.00 in 285.00 W/m2
08:31 62.2 °F 53.1 °F 29.83 in ESE 1.0 mph 7.0 mph 72% 0.00 in 267.00 W/m2
08:36 62.3 °F 53.2 °F 29.83 in Calm   5.0 mph 72% 0.00 in 269.00 W/m2
08:41 62.4 °F 53.6 °F 29.83 in Calm   4.0 mph 73% 0.00 in 257.00 W/m2
08:46 62.6 °F 53.5 °F 29.83 in Calm   1.0 mph 72% 0.00 in 315.00 W/m2
08:51 62.7 °F 53.9 °F 29.82 in Calm   4.0 mph 73% 0.00 in 309.00 W/m2
08:56 62.7 °F 53.5 °F 29.82 in Calm     72% 0.00 in 346.00 W/m2
08:57 62.7 °F 53.5 °F 29.82 in Calm     72% 0.00 in 345.00 W/m2
09:02 62.8 °F 53.7 °F 29.82 in Calm     72% 0.00 in 429.00 W/m2
09:07 62.9 °F 53.8 °F 29.82 in ESE 1.0 mph 1.0 mph 72% 0.00 in 388.00 W/m2
09:12 63.0 °F 53.5 °F 29.82 in ESE 4.0 mph 5.0 mph 71% 0.00 in 350.00 W/m2
09:17 63.0 °F 52.7 °F 29.82 in ESE 6.0 mph 6.0 mph 69% 0.00 in 452.00 W/m2
09:22 63.1 °F 53.2 °F 29.82 in Calm   6.0 mph 70% 0.00 in 450.00 W/m2
09:27 63.3 °F 53.4 °F 29.82 in Calm     70% 0.00 in 584.00 W/m2
09:32 63.4 °F 52.7 °F 29.82 in ESE 2.0 mph 5.0 mph 68% 0.00 in 515.00 W/m2
09:37 63.6 °F 52.5 °F 29.82 in Calm     67% 0.00 in 624.00 W/m2
09:42 63.7 °F 53.0 °F 29.82 in ESE 2.0 mph 4.0 mph 68% 0.00 in 570.00 W/m2
09:47 63.8 °F 51.8 °F 29.82 in Calm   7.0 mph 65% 0.00 in 643.00 W/m2
09:52 64.0 °F 52.0 °F 29.83 in SE 6.0 mph 8.0 mph 65% 0.00 in 703.00 W/m2
09:57 64.2 °F 51.8 °F 29.82 in SSE 4.0 mph 8.0 mph 64% 0.00 in 671.00 W/m2
09:58 64.3 °F 51.0 °F 29.82 in Calm   8.0 mph 62% 0.00 in 668.00 W/m2
10:03 64.4 °F 52.0 °F 29.82 in Calm   7.0 mph 64% 0.00 in 733.00 W/m2
10:08 64.8 °F 52.3 °F 29.82 in South 1.0 mph 7.0 mph 64% 0.00 in 677.00 W/m2
10:13 65.0 °F 51.7 °F 29.82 in South 1.0 mph 6.0 mph 62% 0.00 in 793.00 W/m2
10:18 65.3 °F 51.5 °F 29.83 in Calm   5.0 mph 61% 0.00 in 754.00 W/m2
10:23 65.6 °F 50.9 °F 29.83 in SW 7.0 mph 8.0 mph 59% 0.00 in 701.00 W/m2
10:28 65.8 °F 50.2 °F 29.83 in SW 2.0 mph 5.0 mph 57% 0.00 in 802.00 W/m2
10:33 66.1 °F 50.4 °F 29.83 in SW 5.0 mph 5.0 mph 57% 0.00 in 807.00 W/m2
10:38 66.3 °F 52.0 °F 29.83 in Calm   7.0 mph 60% 0.00 in 816.00 W/m2
10:43 66.5 °F 51.8 °F 29.83 in SW 3.0 mph 7.0 mph 59% 0.00 in 821.00 W/m2
10:48 66.6 °F 50.9 °F 29.83 in Calm   5.0 mph 57% 0.00 in 835.00 W/m2
10:53 66.9 °F 50.7 °F 29.83 in WSW 2.0 mph 11.0 mph 56% 0.00 in 840.00 W/m2
10:58 67.0 °F 49.3 °F 29.83 in West 4.0 mph 6.0 mph 53% 0.00 in 853.00 W/m2
11:03 67.1 °F 48.4 °F 29.83 in WSW 1.0 mph 6.0 mph 51% 0.00 in 856.00 W/m2
11:08 67.2 °F 48.5 °F 29.83 in WSW 2.0 mph 10.0 mph 51% 0.00 in 872.00 W/m2
11:14 67.4 °F 48.1 °F 29.83 in SW 2.0 mph 7.0 mph 50% 0.00 in 881.00 W/m2
11:19 67.6 °F 49.9 °F 29.83 in SW 6.0 mph 9.0 mph 53% 0.00 in 904.00 W/m2
11:24 67.9 °F 49.1 °F 29.83 in Calm   6.0 mph 51% 0.00 in 870.00 W/m2
11:29 68.2 °F 49.9 °F 29.83 in Calm   3.0 mph 52% 0.00 in 893.00 W/m2
11:34 68.5 °F 50.7 °F 29.83 in SW 3.0 mph 7.0 mph 53% 0.00 in 895.00 W/m2
11:39 68.8 °F 50.5 °F 29.83 in Calm   11.0 mph 52% 0.00 in 826.00 W/m2
11:44 69.0 °F 48.5 °F 29.83 in WNW 1.0 mph 7.0 mph 48% 0.00 in 888.00 W/m2
11:49 69.1 °F 49.2 °F 29.83 in SW 4.0 mph 10.0 mph 49% 0.00 in 932.00 W/m2
11:54 69.3 °F 48.8 °F 29.83 in WSW 5.0 mph 6.0 mph 48% 0.00 in 893.00 W/m2
11:59 69.4 °F 48.3 °F 29.82 in SW 8.0 mph 12.0 mph 47% 0.00 in 953.00 W/m2
12:04 69.5 °F 49.0 °F 29.83 in Calm   11.0 mph 48% 0.00 in 958.00 W/m2
12:09 69.8 °F 48.1 °F 29.83 in SW 1.0 mph 9.0 mph 46% 0.00 in 942.00 W/m2
12:14 69.8 °F 46.3 °F 29.83 in West 5.0 mph 13.0 mph 43% 0.00 in 953.00 W/m2
12:19 69.5 °F 46.7 °F 29.83 in WNW 4.0 mph 12.0 mph 44% 0.00 in 942.00 W/m2
12:24 69.4 °F 44.7 °F 29.83 in West 5.0 mph 7.0 mph 41% 0.00 in 954.00 W/m2
12:29 69.5 °F 45.4 °F 29.83 in West 4.0 mph 7.0 mph 42% 0.00 in 956.00 W/m2
12:34 69.7 °F 45.0 °F 29.83 in SW 4.0 mph 7.0 mph 41% 0.00 in 956.00 W/m2
12:39 69.8 °F 44.4 °F 29.83 in WSW 9.0 mph 11.0 mph 40% 0.00 in 954.00 W/m2
12:44 70.0 °F 46.5 °F 29.83 in SW 5.0 mph 7.0 mph 43% 0.00 in 958.00 W/m2
12:49 70.2 °F 42.7 °F 29.82 in SW 6.0 mph 10.0 mph 37% 0.00 in 956.00 W/m2
12:54 70.3 °F 45.5 °F 29.82 in Calm   10.0 mph 41% 0.00 in 958.00 W/m2
12:59 70.5 °F 43.7 °F 29.82 in WSW 1.0 mph 8.0 mph 38% 0.00 in 958.00 W/m2
13:04 70.7 °F 43.9 °F 29.82 in West 5.0 mph 10.0 mph 38% 0.00 in 953.00 W/m2
13:09 70.7 °F 44.5 °F 29.82 in Calm   13.0 mph 39% 0.00 in 953.00 W/m2
13:14 71.3 °F 43.7 °F 29.82 in SW 9.0 mph 15.0 mph 37% 0.00 in 947.00 W/m2
13:19 72.0 °F 45.0 °F 29.82 in Calm   13.0 mph 38% 0.00 in 944.00 W/m2
13:24 72.4 °F 44.7 °F 29.82 in Calm   7.0 mph 37% 0.00 in 949.00 W/m2
13:29 72.2 °F 43.1 °F 29.82 in WSW 5.0 mph 8.0 mph 35% 0.00 in 942.00 W/m2
13:34 72.0 °F 43.6 °F 29.82 in Calm   11.0 mph 36% 0.00 in 944.00 W/m2
13:39 71.4 °F 44.5 °F 29.82 in WSW 1.0 mph 10.0 mph 38% 0.00 in 935.00 W/m2
13:44 71.3 °F 45.8 °F 29.81 in West 5.0 mph 12.0 mph 40% 0.00 in 932.00 W/m2
13:49 71.5 °F 44.6 °F 29.81 in WSW 5.0 mph 10.0 mph 38% 0.00 in 930.00 W/m2
13:54 71.3 °F 44.4 °F 29.81 in Calm   11.0 mph 38% 0.00 in 925.00 W/m2
13:59 71.2 °F 44.3 °F 29.81 in Calm   10.0 mph 38% 0.00 in 926.00 W/m2
14:04 70.9 °F 41.9 °F 29.81 in Calm   1.0 mph 35% 0.00 in 914.00 W/m2
14:09 70.7 °F 44.5 °F 29.82 in SSW 8.0 mph 12.0 mph 39% 0.00 in 911.00 W/m2
14:14 70.8 °F 44.6 °F 29.81 in WSW 2.0 mph 2.0 mph 39% 0.00 in 912.00 W/m2
14:19 71.0 °F 44.1 °F 29.81 in Calm   10.0 mph 38% 0.00 in 900.00 W/m2
14:24 71.2 °F 45.0 °F 29.81 in WSW 7.0 mph 9.0 mph 39% 0.00 in 891.00 W/m2
14:29 71.3 °F 45.8 °F 29.81 in SW 4.0 mph 14.0 mph 40% 0.00 in 877.00 W/m2
14:34 71.7 °F 46.8 °F 29.81 in SW 9.0 mph 13.0 mph 41% 0.00 in 875.00 W/m2
14:36 71.8 °F 46.2 °F 29.81 in SSW 5.0 mph 13.0 mph 40% 0.00 in 874.00 W/m2
14:40 72.0 °F 46.4 °F 29.81 in SSW 6.0 mph 12.0 mph 40% 0.00 in 867.00 W/m2
14:45 72.2 °F 47.2 °F 29.81 in WSW 8.0 mph 11.0 mph 41% 0.00 in 863.00 W/m2
14:50 72.1 °F 46.5 °F 29.81 in WSW 1.0 mph 9.0 mph 40% 0.00 in 854.00 W/m2
14:55 71.9 °F 47.0 °F 29.81 in SW 6.0 mph 11.0 mph 41% 0.00 in 846.00 W/m2
15:00 71.8 °F 47.5 °F 29.81 in Calm   14.0 mph 42% 0.00 in 831.00 W/m2
15:05 71.9 °F 44.9 °F 29.80 in Calm   13.0 mph 38% 0.00 in 828.00 W/m2
15:10 72.0 °F 46.4 °F 29.81 in SSW 15.0 mph 15.0 mph 40% 0.00 in 817.00 W/m2
15:15 71.9 °F 47.6 °F 29.81 in Calm   12.0 mph 42% 0.00 in 803.00 W/m2
15:20 71.8 °F 47.5 °F 29.80 in SSW 12.0 mph 15.0 mph 42% 0.00 in 784.00 W/m2
15:25 71.6 °F 46.0 °F 29.80 in SSW 4.0 mph 13.0 mph 40% 0.00 in 770.00 W/m2
15:30 71.6 °F 46.7 °F 29.80 in West 7.0 mph 11.0 mph 41% 0.00 in 768.00 W/m2
15:35 71.2 °F 45.7 °F 29.80 in WSW 4.0 mph 12.0 mph 40% 0.00 in 749.00 W/m2
15:40 70.7 °F 45.2 °F 29.80 in SSW 5.0 mph 13.0 mph 40% 0.00 in 742.00 W/m2
15:45 70.5 °F 44.4 °F 29.80 in WSW 4.0 mph 13.0 mph 39% 0.00 in 737.00 W/m2
15:46 70.5 °F 44.4 °F 29.80 in WSW 6.0 mph 13.0 mph 39% 0.00 in 724.00 W/m2
15:51 70.4 °F 40.7 °F 29.80 in WSW 10.0 mph 11.0 mph 34% 0.00 in 715.00 W/m2
15:56 70.2 °F 45.4 °F 29.80 in Calm   13.0 mph 41% 0.00 in 689.00 W/m2
16:01 70.1 °F 47.2 °F 29.79 in Calm   11.0 mph 44% 0.00 in 680.00 W/m2
16:06 70.0 °F 48.9 °F 29.79 in SW 5.0 mph 14.0 mph 47% 0.00 in 670.00 W/m2
16:11 70.0 °F 50.0 °F 29.79 in Calm   8.0 mph 49% 0.00 in 652.00 W/m2
16:16 70.0 °F 51.1 °F 29.79 in SW 10.0 mph 19.0 mph 51% 0.00 in 636.00 W/m2
16:21 70.0 °F 49.4 °F 29.79 in SSW 5.0 mph 11.0 mph 48% 0.00 in 628.00 W/m2
16:26 69.9 °F 49.9 °F 29.79 in Calm   15.0 mph 49% 0.00 in 622.00 W/m2
16:31 69.8 °F 48.1 °F 29.79 in SW 4.0 mph 12.0 mph 46% 0.00 in 605.00 W/m2
16:36 69.7 °F 47.4 °F 29.79 in SW 8.0 mph 8.0 mph 45% 0.00 in 585.00 W/m2
16:41 69.6 °F 48.5 °F 29.79 in SSE 4.0 mph 14.0 mph 47% 0.00 in 570.00 W/m2
16:46 69.5 °F 49.0 °F 29.79 in Calm   12.0 mph 48% 0.00 in 563.00 W/m2
16:47 69.4 °F 48.3 °F 29.78 in West 5.0 mph 10.0 mph 47% 0.00 in 554.00 W/m2
16:52 69.2 °F 49.2 °F 29.78 in WSW 6.0 mph 9.0 mph 49% 0.00 in 541.00 W/m2
16:57 69.1 °F 48.6 °F 29.78 in WSW 10.0 mph 14.0 mph 48% 0.00 in 536.00 W/m2
17:02 68.9 °F 47.3 °F 29.78 in WSW 5.0 mph 7.0 mph 46% 0.00 in 526.00 W/m2
17:07 68.7 °F 46.5 °F 29.78 in SSW 1.0 mph 11.0 mph 45% 0.00 in 494.00 W/m2
17:12 68.5 °F 46.3 °F 29.78 in WSW 7.0 mph 9.0 mph 45% 0.00 in 478.00 W/m2
17:17 68.5 °F 47.5 °F 29.78 in SW 7.0 mph 8.0 mph 47% 0.00 in 462.00 W/m2
17:22 68.4 °F 47.4 °F 29.78 in WSW 8.0 mph 8.0 mph 47% 0.00 in 445.00 W/m2
17:27 68.2 °F 48.3 °F 29.78 in Calm   7.0 mph 49% 0.00 in 432.00 W/m2
17:32 68.1 °F 46.6 °F 29.77 in SW 12.0 mph 13.0 mph 46% 0.00 in 415.00 W/m2
17:37 68.1 °F 47.1 °F 29.77 in SW 10.0 mph 10.0 mph 47% 0.00 in 397.00 W/m2
17:42 68.0 °F 47.6 °F 29.78 in SW 5.0 mph 9.0 mph 48% 0.00 in 378.00 W/m2
17:47 67.9 °F 46.4 °F 29.78 in SW 1.0 mph 7.0 mph 46% 0.00 in 364.00 W/m2
17:48 67.9 °F 47.0 °F 29.77 in SSW 5.0 mph 7.0 mph 47% 0.00 in 364.00 W/m2
17:53 67.8 °F 48.0 °F 29.77 in Calm   12.0 mph 49% 0.00 in 345.00 W/m2
17:58 67.7 °F 47.9 °F 29.77 in Calm   11.0 mph 49% 0.00 in 334.00 W/m2
18:03 67.6 °F 48.3 °F 29.77 in South 7.0 mph 11.0 mph 50% 0.00 in 315.00 W/m2
18:08 67.5 °F 47.7 °F 29.77 in Calm   6.0 mph 49% 0.00 in 294.00 W/m2
18:13 67.4 °F 48.1 °F 29.77 in WSW 11.0 mph 13.0 mph 50% 0.00 in 278.00 W/m2
18:18 67.2 °F 48.5 °F 29.77 in SSW 6.0 mph 8.0 mph 51% 0.00 in 262.00 W/m2
18:23 67.1 °F 49.4 °F 29.77 in SSW 3.0 mph 10.0 mph 53% 0.00 in 241.00 W/m2
18:28 67.0 °F 49.8 °F 29.77 in SW 4.0 mph 7.0 mph 54% 0.00 in 225.00 W/m2
18:33 66.9 °F 49.7 °F 29.77 in SSW 7.0 mph 10.0 mph 54% 0.00 in 200.00 W/m2
18:38 66.8 °F 49.6 °F 29.77 in SW 8.0 mph 11.0 mph 54% 0.00 in 193.00 W/m2
18:43 66.6 °F 50.0 °F 29.77 in WSW 8.0 mph 12.0 mph 55% 0.00 in 160.00 W/m2
18:48 66.4 °F 49.8 °F 29.77 in SW 6.0 mph 10.0 mph 55% 0.00 in 114.00 W/m2
18:53 66.2 °F 50.5 °F 29.77 in SSW 7.0 mph 10.0 mph 57% 0.00 in 137.00 W/m2
18:58 66.0 °F 50.8 °F 29.77 in SSW 4.0 mph 8.0 mph 58% 0.00 in 114.00 W/m2
19:03 65.8 °F 51.1 °F 29.77 in Calm   6.0 mph 59% 0.00 in 37.00 W/m2
19:08 65.5 °F 51.3 °F 29.77 in Calm   4.0 mph 60% 0.00 in 25.00 W/m2
19:13 65.3 °F 51.5 °F 29.77 in SW 6.0 mph 6.0 mph 61% 0.00 in 21.00 W/m2
19:18 65.1 °F 51.8 °F 29.77 in Calm   6.0 mph 62% 0.00 in 18.00 W/m2
19:23 64.8 °F 51.9 °F 29.77 in Calm   7.0 mph 63% 0.00 in 18.00 W/m2
19:28 64.7 °F 51.8 °F 29.77 in Calm   10.0 mph 63% 0.00 in 14.00 W/m2
19:33 64.3 °F 52.3 °F 29.77 in SSW 7.0 mph 7.0 mph 65% 0.00 in 12.00 W/m2
19:38 64.0 °F 52.0 °F 29.77 in Calm   11.0 mph 65% 0.00 in 11.00 W/m2
19:43 63.6 °F 52.0 °F 29.77 in SSW 7.0 mph 10.0 mph 66% 0.00 in 9.00 W/m2
19:48 63.4 °F 52.3 °F 29.77 in SSW 9.0 mph 9.0 mph 67% 0.00 in 7.00 W/m2
19:53 63.1 °F 52.4 °F 29.77 in Calm   8.0 mph 68% 0.00 in 5.00 W/m2
19:58 62.8 °F 52.1 °F 29.77 in SSW 3.0 mph 10.0 mph 68% 0.00 in 5.00 W/m2
20:03 62.5 °F 52.2 °F 29.77 in Calm   8.0 mph 69% 0.00 in 0.00 W/m2
20:08 62.3 °F 52.0 °F 29.78 in South 6.0 mph 12.0 mph 69% 0.00 in 0.00 W/m2
20:13 62.0 °F 52.1 °F 29.78 in Calm   10.0 mph 70% 0.00 in 0.00 W/m2
20:18 61.7 °F 52.2 °F 29.78 in Calm   9.0 mph 71% 0.00 in 0.00 W/m2
20:23 61.4 °F 51.9 °F 29.78 in SSW 5.0 mph 9.0 mph 71% 0.00 in 0.00 W/m2
20:29 61.1 °F 51.6 °F 29.79 in South 2.0 mph 14.0 mph 71% 0.00 in 0.00 W/m2
20:33 60.8 °F 51.7 °F 29.79 in South 5.0 mph 10.0 mph 72% 0.00 in 0.00 W/m2
20:38 60.5 °F 51.1 °F 29.78 in South 8.0 mph 13.0 mph 71% 0.00 in 0.00 W/m2
20:43 60.2 °F 50.4 °F 29.79 in South 4.0 mph 12.0 mph 70% 0.00 in 0.00 W/m2
20:48 60.0 °F 50.2 °F 29.79 in Calm     70% 0.00 in 0.00 W/m2
20:54 59.8 °F 50.0 °F 29.79 in Calm   7.0 mph 70% 0.00 in 0.00 W/m2
20:59 59.5 °F 49.7 °F 29.78 in Calm   10.0 mph 70% 0.00 in 0.00 W/m2
21:04 59.3 °F 49.1 °F 29.78 in Calm     69% 0.00 in 0.00 W/m2
21:09 59.1 °F 49.3 °F 29.78 in Calm     70% 0.00 in 0.00 W/m2
21:14 58.8 °F 48.7 °F 29.78 in Calm     69% 0.00 in 0.00 W/m2
21:19 58.6 °F 48.5 °F 29.78 in Calm     69% 0.00 in 0.00 W/m2
21:24 58.4 °F 48.3 °F 29.79 in Calm     69% 0.00 in 0.00 W/m2
21:29 58.1 °F 48.4 °F 29.78 in Calm     70% 0.00 in 0.00 W/m2
21:34 57.7 °F 48.0 °F 29.79 in Calm     70% 0.00 in 0.00 W/m2
21:39 57.3 °F 48.0 °F 29.78 in Calm     71% 0.00 in 0.00 W/m2
21:44 56.8 °F 47.9 °F 29.78 in Calm     72% 0.00 in 0.00 W/m2
21:49 56.5 °F 47.6 °F 29.78 in Calm     72% 0.00 in 0.00 W/m2
21:54 56.1 °F 47.2 °F 29.79 in Calm     72% 0.00 in 0.00 W/m2
21:59 55.9 °F 47.0 °F 29.78 in Calm     72% 0.00 in 0.00 W/m2
22:04 55.7 °F 46.5 °F 29.78 in Calm     71% 0.00 in 0.00 W/m2
22:09 55.5 °F 46.3 °F 29.78 in Calm     71% 0.00 in 0.00 W/m2
22:14 55.4 °F 46.2 °F 29.78 in Calm     71% 0.00 in 0.00 W/m2
22:19 55.3 °F 46.1 °F 29.78 in Calm     71% 0.00 in 0.00 W/m2
22:24 55.1 °F 46.2 °F 29.78 in Calm   1.0 mph 72% 0.00 in 0.00 W/m2
22:29 54.9 °F 45.7 °F 29.77 in Calm   7.0 mph 71% 0.00 in 0.00 W/m2
22:34 54.8 °F 46.0 °F 29.77 in SE 1.0 mph 9.0 mph 72% 0.00 in 0.00 W/m2
22:39 54.8 °F 46.0 °F 29.77 in Calm   11.0 mph 72% 0.00 in 0.00 W/m2
22:44 54.7 °F 45.9 °F 29.77 in Calm   4.0 mph 72% 0.00 in 0.00 W/m2
22:49 54.7 °F 45.9 °F 29.77 in SSE 2.0 mph 4.0 mph 72% 0.00 in 0.00 W/m2
22:54 54.7 °F 45.9 °F 29.77 in Calm   2.0 mph 72% 0.00 in 0.00 W/m2
22:59 54.7 °F 46.2 °F 29.77 in South 7.0 mph 10.0 mph 73% 0.00 in 0.00 W/m2
23:04 54.6 °F 46.1 °F 29.77 in Calm   9.0 mph 73% 0.00 in 0.00 W/m2
23:09 54.6 °F 46.1 °F 29.77 in Calm   9.0 mph 73% 0.00 in 0.00 W/m2
23:14 54.6 °F 46.5 °F 29.77 in SSW 7.0 mph 9.0 mph 74% 0.00 in 0.00 W/m2
23:19 54.5 °F 46.4 °F 29.77 in Calm   7.0 mph 74% 0.00 in 0.00 W/m2
23:24 54.4 °F 46.3 °F 29.77 in Calm   1.0 mph 74% 0.00 in 0.00 W/m2
23:29 54.3 °F 45.8 °F 29.77 in SSW 5.0 mph 9.0 mph 73% 0.00 in 0.00 W/m2
23:34 54.1 °F 46.0 °F 29.76 in South 7.0 mph 9.0 mph 74% 0.00 in 0.00 W/m2
23:39 54.0 °F 45.9 °F 29.76 in South 6.0 mph 10.0 mph 74% 0.00 in 0.00 W/m2
23:44 53.8 °F 46.1 °F 29.76 in South 10.0 mph 12.0 mph 75% 0.00 in 0.00 W/m2
23:49 53.6 °F 46.2 °F 29.76 in South 7.0 mph 9.0 mph 76% 0.00 in 0.00 W/m2
23:54 53.3 °F 45.9 °F 29.76 in South 6.0 mph 10.0 mph 76% 0.00 in 0.00 W/m2
23:59 53.1 °F 45.8 °F 29.76 in South 9.0 mph 12.0 mph 76% 0.00 in 0.00 W/m2
Foresthill Weather
 WU-history PHP script courtesy of   Juneau County Weather.
powered by Cumulus v1.9.3 (1059)
Ambient Weather VWS v14.00
Top Contact Website Map Copyright © 2007 - 2018 Foresthillweather.com Never base important decisions on this or any weather information obtained from the Internet